TimeCST,TemperatureF,Dew PointF,Humidity,Sea Level PressureIn,VisibilityMPH,Wind Direction,Wind SpeedMPH,Gust SpeedMPH,PrecipitationIn,Events,Conditions,WindDirDegrees,DateUTC
12:55 AM,34.0,28.0,79,30.35,10.0,NE,10.4,-,N/A,,Clear,40,2012-12-05 06:55:00
1:55 AM,35.1,28.0,76,30.37,10.0,NE,8.1,-,N/A,,Clear,40,2012-12-05 07:55:00
2:55 AM,30.0,25.0,82,30.39,10.0,NE,8.1,-,N/A,,Clear,40,2012-12-05 08:55:00
3:55 AM,30.0,26.1,85,30.38,10.0,NE,8.1,-,N/A,,Clear,40,2012-12-05 09:55:00
4:55 AM,30.9,25.0,79,30.38,10.0,ENE,3.5,-,N/A,,Clear,70,2012-12-05 10:55:00
5:55 AM,26.6,23.0,86,30.36,10.0,ENE,4.6,-,N/A,,Clear,60,2012-12-05 11:55:00
6:55 AM,28.9,24.1,82,30.40,10.0,East,4.6,-,N/A,,Clear,80,2012-12-05 12:55:00
8:55 AM,34.0,27.0,75,30.41,10.0,East,6.9,-,N/A,,Clear,90,2012-12-05 14:55:00
9:55 AM,37.9,28.0,68,30.40,10.0,East,6.9,-,N/A,,Clear,100,2012-12-05 15:55:00
10:55 AM,43.0,28.9,58,30.38,10.0,ESE,9.2,-,N/A,,Clear,110,2012-12-05 16:55:00
11:55 AM,45.0,30.0,56,30.35,10.0,SE,10.4,-,N/A,,Clear,130,2012-12-05 17:55:00
12:55 PM,48.2,32.0,54,30.28,10.0,SE,10.4,-,N/A,,Clear,130,2012-12-05 18:55:00
1:55 PM,48.9,33.1,54,30.28,10.0,SE,10.4,-,N/A,,Clear,140,2012-12-05 19:55:00
2:55 PM,50.0,34.0,54,30.26,10.0,SE,9.2,-,N/A,,Clear,130,2012-12-05 20:55:00
3:55 PM,48.0,34.0,58,30.24,10.0,SE,9.2,-,N/A,,Clear,130,2012-12-05 21:55:00
4:55 PM,43.0,34.0,71,30.23,10.0,ESE,6.9,-,N/A,,Clear,120,2012-12-05 22:55:00
5:55 PM,39.9,32.0,73,30.22,10.0,ESE,5.8,-,N/A,,Clear,110,2012-12-05 23:55:00
6:55 PM,39.9,33.1,77,30.20,10.0,ESE,8.1,-,N/A,,Clear,120,2012-12-06 00:55:00
7:55 PM,39.9,33.1,77,30.19,10.0,SE,10.4,-,N/A,,Clear,140,2012-12-06 01:55:00
8:55 PM,39.9,34.0,79,30.16,10.0,SE,11.5,-,N/A,,Clear,140,2012-12-06 02:55:00
9:55 PM,41.0,34.0,76,30.14,10.0,SE,11.5,-,N/A,,Clear,140,2012-12-06 03:55:00
10:55 PM,41.0,34.0,76,30.12,10.0,SSE,11.5,-,N/A,,Clear,150,2012-12-06 04:55:00
11:55 PM,39.9,34.0,79,30.10,10.0,SSE,15.0,-,N/A,,Clear,160,2012-12-06 05:55:00